owner,sensor,date,latitude,longitude,vertical_datum,mass_concentration_of_oxygen_in_sea_water,qcFlag 
DISL,ioos:station:DISL:DISL:1,2012-05-01T00:00:00Z,30.2513,-88.0778,6.453,7.68,1111122 
DISL,ioos:station:DISL:DISL:1,2012-05-01T00:30:00Z,30.2513,-88.0778,6.498,7.65,1111122 
DISL,ioos:station:DISL:DISL:1,2012-05-01T01:00:00Z,30.2513,-88.0778,6.499,7.76,1111122 
DISL,ioos:station:DISL:DISL:1,2012-05-01T01:30:00Z,30.2513,-88.0778,6.477,7.73,1111122 
DISL,ioos:station:DISL:DISL:1,2012-05-01T02:00:00Z,30.2513,-88.0778,6.426,7.71,1111122 
DISL,ioos:station:DISL:DISL:1,2012-05-01T02:30:00Z,30.2513,-88.0778,6.421,7.57,1111122 
DISL,ioos:station:DISL:DISL:1,2012-05-01T03:00:00Z,30.2513,-88.0778,6.342,7.46,1111122 
DISL,ioos:station:DISL:DISL:1,2012-05-01T03:30:00Z,30.2513,-88.0778,6.281,7.45,1111122 
DISL,ioos:station:DISL:DISL:1,2012-05-01T04:00:00Z,30.2513,-88.0778,6.244,7.58,1111122 
DISL,ioos:station:DISL:DISL:1,2012-05-01T04:30:00Z,30.2513,-88.0778,6.158,7.51,1111122 
DISL,ioos:station:DISL:DISL:1,2012-05-01T05:00:00Z,30.2513,-88.0778,6.106,7.11,1111122 
DISL,ioos:station:DISL:DISL:1,2012-05-01T05:30:00Z,30.2513,-88.0778,6.073,7.57,1111122 
DISL,ioos:station:DISL:DISL:1,2012-05-01T06:00:00Z,30.2513,-88.0778,6.076,8.06,1111122 
DISL,ioos:station:DISL:DISL:1,2012-05-01T06:30:00Z,30.2513,-88.0778,6.053,7.76,1111122 
DISL,ioos:station:DISL:DISL:1,2012-05-01T07:00:00Z,30.2513,-88.0778,6.031,7.64,1111122 
DISL,ioos:station:DISL:DISL:1,2012-05-01T07:30:00Z,30.2513,-88.0778,6.036,7.56,1111122 
DISL,ioos:station:DISL:DISL:1,2012-05-01T08:00:00Z,30.2513,-88.0778,6.037,7.58,1111122 
DISL,ioos:station:DISL:DISL:1,2012-05-01T08:30:00Z,30.2513,-88.0778,6.03,7.36,1111122 
DISL,ioos:station:DISL:DISL:1,2012-05-01T09:00:00Z,30.2513,-88.0778,6.063,7.15,1111122 
DISL,ioos:station:DISL:DISL:1,2012-05-01T09:30:00Z,30.2513,-88.0778,6.064,7.07,1111122 
DISL,ioos:station:DISL:DISL:1,2012-05-01T10:00:00Z,30.2513,-88.0778,6.08,6.82,1111122 
DISL,ioos:station:DISL:DISL:1,2012-05-01T10:30:00Z,30.2513,-88.0778,6.109,6.36,1111122 
DISL,ioos:station:DISL:DISL:1,2012-05-01T11:00:00Z,30.2513,-88.0778,6.149,5.55,1111122 
DISL,ioos:station:DISL:DISL:1,2012-05-01T11:30:00Z,30.2513,-88.0778,6.139,6.75,1111122 
DISL,ioos:station:DISL:DISL:1,2012-05-01T12:00:00Z,30.2513,-88.0778,6.194,6.23,1111122 
DISL,ioos:station:DISL:DISL:1,2012-05-01T12:30:00Z,30.2513,-88.0778,6.237,6.13,1111122 
DISL,ioos:station:DISL:DISL:1,2012-05-01T13:00:00Z,30.2513,-88.0778,6.265,6.25,1111122 
DISL,ioos:station:DISL:DISL:1,2012-05-01T13:30:00Z,30.2513,-88.0778,6.308,6.11,1111122 
DISL,ioos:station:DISL:DISL:1,2012-05-01T14:00:00Z,30.2513,-88.0778,6.313,6.05,1111122 
DISL,ioos:station:DISL:DISL:1,2012-05-01T14:30:00Z,30.2513,-88.0778,6.352,6.31,1111122 
DISL,ioos:station:DISL:DISL:1,2012-05-01T15:00:00Z,30.2513,-88.0778,6.391,6.75,1111122 
DISL,ioos:station:DISL:DISL:1,2012-05-01T15:30:00Z,30.2513,-88.0778,6.417,6.62,1111122 
DISL,ioos:station:DISL:DISL:1,2012-05-01T16:00:00Z,30.2513,-88.0778,6.401,7.07,1111122 
DISL,ioos:station:DISL:DISL:1,2012-05-01T16:30:00Z,30.2513,-88.0778,6.457,7.4,1111122 
DISL,ioos:station:DISL:DISL:1,2012-05-01T17:00:00Z,30.2513,-88.0778,6.427,7.54,1111122 
DISL,ioos:station:DISL:DISL:1,2012-05-01T17:30:00Z,30.2513,-88.0778,6.424,7.58,1111122 
DISL,ioos:station:DISL:DISL:1,2012-05-01T18:00:00Z,30.2513,-88.0778,6.374,7.47,1111122 
DISL,ioos:station:DISL:DISL:1,2012-05-01T18:30:00Z,30.2513,-88.0778,6.386,7.3,1111122 
DISL,ioos:station:DISL:DISL:1,2012-05-01T19:00:00Z,30.2513,-88.0778,6.389,7.29,1111122 
DISL,ioos:station:DISL:DISL:1,2012-05-01T19:30:00Z,30.2513,-88.0778,6.39,7.11,1111122 
DISL,ioos:station:DISL:DISL:1,2012-05-01T20:00:00Z,30.2513,-88.0778,6.417,7.29,1111122 
DISL,ioos:station:DISL:DISL:1,2012-05-01T20:30:00Z,30.2513,-88.0778,6.424,7.41,1111122 
DISL,ioos:station:DISL:DISL:1,2012-05-01T21:00:00Z,30.2513,-88.0778,6.473,7.52,1111122 
DISL,ioos:station:DISL:DISL:1,2012-05-01T21:30:00Z,30.2513,-88.0778,6.414,7.44,1111122 
DISL,ioos:station:DISL:DISL:1,2012-05-01T22:00:00Z,30.2513,-88.0778,6.413,7.4,1111122 
DISL,ioos:station:DISL:DISL:1,2012-05-01T22:30:00Z,30.2513,-88.0778,6.414,6.96,1111122 
DISL,ioos:station:DISL:DISL:1,2012-05-01T23:00:00Z,30.2513,-88.0778,6.48,7.32,1111122 
DISL,ioos:station:DISL:DISL:1,2012-05-01T23:30:00Z,30.2513,-88.0778,6.539,7.12,1111122 
DISL,ioos:station:DISL:DISL:1,2012-05-02T00:00:00Z,30.2513,-88.0778,6.526,7.33,1111122 
DISL,ioos:station:DISL:DISL:1,2012-05-02T00:30:00Z,30.2513,-88.0778,6.556,7.15,1111122 
DISL,ioos:station:DISL:DISL:1,2012-05-02T01:00:00Z,30.2513,-88.0778,6.606,7.21,1111122 
DISL,ioos:station:DISL:DISL:1,2012-05-02T01:30:00Z,30.2513,-88.0778,6.581,6.84,1111122 
DISL,ioos:station:DISL:DISL:1,2012-05-02T02:00:00Z,30.2513,-88.0778,6.58,6.95,1111122 
DISL,ioos:station:DISL:DISL:1,2012-05-02T02:30:00Z,30.2513,-88.0778,6.591,6.88,1111122 
DISL,ioos:station:DISL:DISL:1,2012-05-02T03:00:00Z,30.2513,-88.0778,6.617,6.66,1111122 
DISL,ioos:station:DISL:DISL:1,2012-05-02T03:30:00Z,30.2513,-88.0778,6.68,6.68,1111122 
DISL,ioos:station:DISL:DISL:1,2012-05-02T04:00:00Z,30.2513,-88.0778,6.644,6.64,1111122 
DISL,ioos:station:DISL:DISL:1,2012-05-02T04:30:00Z,30.2513,-88.0778,6.613,6.65,1111122 
DISL,ioos:station:DISL:DISL:1,2012-05-02T05:00:00Z,30.2513,-88.0778,6.656,6.73,1111122 
DISL,ioos:station:DISL:DISL:1,2012-05-02T05:30:00Z,30.2513,-88.0778,6.65,6.8,1111122 
DISL,ioos:station:DISL:DISL:1,2012-05-02T06:00:00Z,30.2513,-88.0778,6.621,6.81,1111122 
DISL,ioos:station:DISL:DISL:1,2012-05-02T06:30:00Z,30.2513,-88.0778,6.634,6.77,1111122 
DISL,ioos:station:DISL:DISL:1,2012-05-02T07:00:00Z,30.2513,-88.0778,6.691,6.97,1111122 
DISL,ioos:station:DISL:DISL:1,2012-05-02T07:30:00Z,30.2513,-88.0778,6.679,6.86,1111122 
DISL,ioos:station:DISL:DISL:1,2012-05-02T08:00:00Z,30.2513,-88.0778,6.664,6.12,1111122 
DISL,ioos:station:DISL:DISL:1,2012-05-02T08:30:00Z,30.2513,-88.0778,6.671,6.64,1111122 
DISL,ioos:station:DISL:DISL:1,2012-05-02T09:00:00Z,30.2513,-88.0778,6.7,6.59,1111122 
DISL,ioos:station:DISL:DISL:1,2012-05-02T09:30:00Z,30.2513,-88.0778,6.557,6.55,1111122 
DISL,ioos:station:DISL:DISL:1,2012-05-02T10:00:00Z,30.2513,-88.0778,6.684,6.51,1111122 
DISL,ioos:station:DISL:DISL:1,2012-05-02T10:30:00Z,30.2513,-88.0778,6.744,6.57,1111122 
DISL,ioos:station:DISL:DISL:1,2012-05-02T11:00:00Z,30.2513,-88.0778,6.73,6.46,1111122 
DISL,ioos:station:DISL:DISL:1,2012-05-02T11:30:00Z,30.2513,-88.0778,6.752,5.97,1111122 
DISL,ioos:station:DISL:DISL:1,2012-05-02T12:00:00Z,30.2513,-88.0778,6.75,5.99,1111122 
DISL,ioos:station:DISL:DISL:1,2012-05-02T12:30:00Z,30.2513,-88.0778,6.795,6.25,1111122 
DISL,ioos:station:DISL:DISL:1,2012-05-02T13:00:00Z,30.2513,-88.0778,6.917,6.14,1111122 
DISL,ioos:station:DISL:DISL:1,2012-05-02T13:30:00Z,30.2513,-88.0778,6.901,5.96,1111122 
DISL,ioos:station:DISL:DISL:1,2012-05-02T14:00:00Z,30.2513,-88.0778,6.925,5.85,1111122 
DISL,ioos:station:DISL:DISL:1,2012-05-02T14:30:00Z,30.2513,-88.0778,6.976,5.88,1111122 
DISL,ioos:station:DISL:DISL:1,2012-05-02T15:00:00Z,30.2513,-88.0778,6.998,5.93,1111122 
DISL,ioos:station:DISL:DISL:1,2012-05-02T15:30:00Z,30.2513,-88.0778,7.04,5.96,1111122 
DISL,ioos:station:DISL:DISL:1,2012-05-02T16:00:00Z,30.2513,-88.0778,6.975,5.86,1111122 
DISL,ioos:station:DISL:DISL:1,2012-05-02T16:30:00Z,30.2513,-88.0778,7.04,5.85,1111122 
DISL,ioos:station:DISL:DISL:1,2012-05-02T17:00:00Z,30.2513,-88.0778,7.0,5.9,1111122 
DISL,ioos:station:DISL:DISL:1,2012-05-02T17:30:00Z,30.2513,-88.0778,6.99,5.95,1111122 
DISL,ioos:station:DISL:DISL:1,2012-05-02T18:00:00Z,30.2513,-88.0778,7.0,6.11,1111122 
DISL,ioos:station:DISL:DISL:1,2012-05-02T18:30:00Z,30.2513,-88.0778,7.27,6.17,1111122 
DISL,ioos:station:DISL:DISL:1,2012-05-02T19:00:00Z,30.2513,-88.0778,7.01,6.34,1111122 
DISL,ioos:station:DISL:DISL:1,2012-05-02T19:30:00Z,30.2513,-88.0778,7.07,6.52,1111122 
DISL,ioos:station:DISL:DISL:1,2012-05-02T20:00:00Z,30.2513,-88.0778,7.02,6.32,1111122 
DISL,ioos:station:DISL:DISL:1,2012-05-02T20:30:00Z,30.2513,-88.0778,6.94,6.21,1111122 
DISL,ioos:station:DISL:DISL:1,2012-05-02T21:00:00Z,30.2513,-88.0778,6.943,6.25,1111122 
DISL,ioos:station:DISL:DISL:1,2012-05-02T21:30:00Z,30.2513,-88.0778,6.924,6.29,1111122 
DISL,ioos:station:DISL:DISL:1,2012-05-02T22:00:00Z,30.2513,-88.0778,6.798,6.32,1111122 
DISL,ioos:station:DISL:DISL:1,2012-05-02T22:30:00Z,30.2513,-88.0778,6.76,6.3,1111122 
DISL,ioos:station:DISL:DISL:1,2012-05-02T23:00:00Z,30.2513,-88.0778,6.855,6.49,1111122 
DISL,ioos:station:DISL:DISL:1,2012-05-02T23:30:00Z,30.2513,-88.0778,6.992,6.59,1111122 
DISL,ioos:station:DISL:DISL:1,2012-05-03T00:00:00Z,30.2513,-88.0778,7.16,6.8,1111122 
DISL,ioos:station:DISL:DISL:1,2012-05-03T00:30:00Z,30.2513,-88.0778,7.32,6.79,1111122 
DISL,ioos:station:DISL:DISL:1,2012-05-03T01:00:00Z,30.2513,-88.0778,7.21,6.76,1111122 
DISL,ioos:station:DISL:DISL:1,2012-05-03T01:30:00Z,30.2513,-88.0778,7.13,6.77,1111122 
DISL,ioos:station:DISL:DISL:1,2012-05-03T02:00:00Z,30.2513,-88.0778,7.16,6.66,1111122 
DISL,ioos:station:DISL:DISL:1,2012-05-03T02:30:00Z,30.2513,-88.0778,7.13,6.6,1111122 
DISL,ioos:station:DISL:DISL:1,2012-05-03T03:00:00Z,30.2513,-88.0778,7.19,6.57,1111122 
DISL,ioos:station:DISL:DISL:1,2012-05-03T03:30:00Z,30.2513,-88.0778,7.1,6.55,1111122 
DISL,ioos:station:DISL:DISL:1,2012-05-03T04:00:00Z,30.2513,-88.0778,7.05,6.58,1111122 
DISL,ioos:station:DISL:DISL:1,2012-05-03T04:30:00Z,30.2513,-88.0778,7.05,6.5,1111122 
DISL,ioos:station:DISL:DISL:1,2012-05-03T05:00:00Z,30.2513,-88.0778,7.01,6.49,1111122 
DISL,ioos:station:DISL:DISL:1,2012-05-03T05:30:00Z,30.2513,-88.0778,6.89,6.69,1111122 
DISL,ioos:station:DISL:DISL:1,2012-05-03T06:00:00Z,30.2513,-88.0778,6.845,6.53,1111122 
DISL,ioos:station:DISL:DISL:1,2012-05-03T06:30:00Z,30.2513,-88.0778,6.915,6.58,1111122 
DISL,ioos:station:DISL:DISL:1,2012-05-03T07:00:00Z,30.2513,-88.0778,6.843,6.61,1111122 
DISL,ioos:station:DISL:DISL:1,2012-05-03T07:30:00Z,30.2513,-88.0778,6.893,6.51,1111122 
DISL,ioos:station:DISL:DISL:1,2012-05-03T08:00:00Z,30.2513,-88.0778,6.883,6.41,1111122 
DISL,ioos:station:DISL:DISL:1,2012-05-03T08:30:00Z,30.2513,-88.0778,6.837,6.39,1111122 
DISL,ioos:station:DISL:DISL:1,2012-05-03T09:00:00Z,30.2513,-88.0778,6.92,6.17,1111122 
DISL,ioos:station:DISL:DISL:1,2012-05-03T09:30:00Z,30.2513,-88.0778,6.974,6.13,1111122 
DISL,ioos:station:DISL:DISL:1,2012-05-03T10:00:00Z,30.2513,-88.0778,7.12,5.98,1111122 
DISL,ioos:station:DISL:DISL:1,2012-05-03T10:30:00Z,30.2513,-88.0778,7.23,6.15,1111122 
DISL,ioos:station:DISL:DISL:1,2012-05-03T11:00:00Z,30.2513,-88.0778,7.22,5.97,1111122 
DISL,ioos:station:DISL:DISL:1,2012-05-03T11:30:00Z,30.2513,-88.0778,7.26,6.09,1111122 
DISL,ioos:station:DISL:DISL:1,2012-05-03T12:00:00Z,30.2513,-88.0778,7.23,6.11,1111122 
DISL,ioos:station:DISL:DISL:1,2012-05-03T12:30:00Z,30.2513,-88.0778,7.28,6.22,1111122 
DISL,ioos:station:DISL:DISL:1,2012-05-03T13:00:00Z,30.2513,-88.0778,7.28,6.27,1111122 
DISL,ioos:station:DISL:DISL:1,2012-05-03T13:30:00Z,30.2513,-88.0778,7.33,6.24,1111122 
DISL,ioos:station:DISL:DISL:1,2012-05-03T14:00:00Z,30.2513,-88.0778,7.33,6.12,1111122 
DISL,ioos:station:DISL:DISL:1,2012-05-03T14:30:00Z,30.2513,-88.0778,7.37,6.19,1111122 
DISL,ioos:station:DISL:DISL:1,2012-05-03T15:00:00Z,30.2513,-88.0778,7.28,6.34,1111122 
DISL,ioos:station:DISL:DISL:1,2012-05-03T15:30:00Z,30.2513,-88.0778,7.2,6.3,1111122 
DISL,ioos:station:DISL:DISL:1,2012-05-03T16:00:00Z,30.2513,-88.0778,7.22,6.52,1111122 
DISL,ioos:station:DISL:DISL:1,2012-05-03T16:30:00Z,30.2513,-88.0778,7.14,6.68,1111122 
DISL,ioos:station:DISL:DISL:1,2012-05-03T17:00:00Z,30.2513,-88.0778,7.16,6.88,1111122 
DISL,ioos:station:DISL:DISL:1,2012-05-03T17:30:00Z,30.2513,-88.0778,7.02,7.07,1111122 
DISL,ioos:station:DISL:DISL:1,2012-05-03T18:00:00Z,30.2513,-88.0778,7.0,7.27,1111122 
DISL,ioos:station:DISL:DISL:1,2012-05-03T18:30:00Z,30.2513,-88.0778,6.909,7.47,1111122 
DISL,ioos:station:DISL:DISL:1,2012-05-03T19:00:00Z,30.2513,-88.0778,6.774,7.62,1111122 
DISL,ioos:station:DISL:DISL:1,2012-05-03T19:30:00Z,30.2513,-88.0778,6.704,7.68,1111122 
DISL,ioos:station:DISL:DISL:1,2012-05-03T20:00:00Z,30.2513,-88.0778,6.681,7.76,1111122 
DISL,ioos:station:DISL:DISL:1,2012-05-03T20:30:00Z,30.2513,-88.0778,6.64,7.93,1111122 
DISL,ioos:station:DISL:DISL:1,2012-05-03T21:00:00Z,30.2513,-88.0778,6.444,7.97,1111122 
DISL,ioos:station:DISL:DISL:1,2012-05-03T21:30:00Z,30.2513,-88.0778,6.572,8.14,1111122 
DISL,ioos:station:DISL:DISL:1,2012-05-03T22:00:00Z,30.2513,-88.0778,6.581,7.92,1111122 
DISL,ioos:station:DISL:DISL:1,2012-05-03T22:30:00Z,30.2513,-88.0778,6.519,7.86,1111122 
DISL,ioos:station:DISL:DISL:1,2012-05-03T23:00:00Z,30.2513,-88.0778,6.501,7.83,1111122 
DISL,ioos:station:DISL:DISL:1,2012-05-03T23:30:00Z,30.2513,-88.0778,6.466,7.57,1111122 
DISL,ioos:station:DISL:DISL:1,2012-05-04T00:00:00Z,30.2513,-88.0778,6.479,7.64,1111122 
DISL,ioos:station:DISL:DISL:1,2012-05-04T00:30:00Z,30.2513,-88.0778,6.521,7.62,1111122 
DISL,ioos:station:DISL:DISL:1,2012-05-04T01:00:00Z,30.2513,-88.0778,6.523,7.59,1111122 
DISL,ioos:station:DISL:DISL:1,2012-05-04T01:30:00Z,30.2513,-88.0778,6.546,7.37,1111122 
DISL,ioos:station:DISL:DISL:1,2012-05-04T02:00:00Z,30.2513,-88.0778,6.467,7.18,1111122 
DISL,ioos:station:DISL:DISL:1,2012-05-04T02:30:00Z,30.2513,-88.0778,6.561,7.42,1111122 
DISL,ioos:station:DISL:DISL:1,2012-05-04T03:00:00Z,30.2513,-88.0778,6.585,7.36,1111122 
DISL,ioos:station:DISL:DISL:1,2012-05-04T03:30:00Z,30.2513,-88.0778,6.631,7.25,1111122 
DISL,ioos:station:DISL:DISL:1,2012-05-04T04:00:00Z,30.2513,-88.0778,6.689,7.22,1111122 
DISL,ioos:station:DISL:DISL:1,2012-05-04T04:30:00Z,30.2513,-88.0778,6.64,7.15,1111122 
DISL,ioos:station:DISL:DISL:1,2012-05-04T05:00:00Z,30.2513,-88.0778,6.734,7.01,1111122 
DISL,ioos:station:DISL:DISL:1,2012-05-04T05:30:00Z,30.2513,-88.0778,6.801,6.95,1111122 
DISL,ioos:station:DISL:DISL:1,2012-05-04T06:00:00Z,30.2513,-88.0778,6.799,7.05,1111122 
DISL,ioos:station:DISL:DISL:1,2012-05-04T06:30:00Z,30.2513,-88.0778,6.854,6.18,1111122 
DISL,ioos:station:DISL:DISL:1,2012-05-04T07:00:00Z,30.2513,-88.0778,6.843,6.47,1111122 
DISL,ioos:station:DISL:DISL:1,2012-05-04T07:30:00Z,30.2513,-88.0778,6.95,6.42,1111122 
DISL,ioos:station:DISL:DISL:1,2012-05-04T08:00:00Z,30.2513,-88.0778,6.988,6.5,1111122 
DISL,ioos:station:DISL:DISL:1,2012-05-04T08:30:00Z,30.2513,-88.0778,7.05,6.85,1111122 
DISL,ioos:station:DISL:DISL:1,2012-05-04T09:00:00Z,30.2513,-88.0778,7.07,6.72,1111122 
DISL,ioos:station:DISL:DISL:1,2012-05-04T09:30:00Z,30.2513,-88.0778,7.17,6.73,1111122 
DISL,ioos:station:DISL:DISL:1,2012-05-04T10:00:00Z,30.2513,-88.0778,7.29,6.53,1111122 
DISL,ioos:station:DISL:DISL:1,2012-05-04T10:30:00Z,30.2513,-88.0778,7.29,6.29,1111122 
DISL,ioos:station:DISL:DISL:1,2012-05-04T11:00:00Z,30.2513,-88.0778,7.31,6.14,1111122 
DISL,ioos:station:DISL:DISL:1,2012-05-04T11:30:00Z,30.2513,-88.0778,7.35,5.78,1111122 
DISL,ioos:station:DISL:DISL:1,2012-05-04T12:00:00Z,30.2513,-88.0778,7.39,5.89,1111122 
DISL,ioos:station:DISL:DISL:1,2012-05-04T12:30:00Z,30.2513,-88.0778,7.3,5.64,1111122 
DISL,ioos:station:DISL:DISL:1,2012-05-04T13:00:00Z,30.2513,-88.0778,7.19,6.11,1111122 
DISL,ioos:station:DISL:DISL:1,2012-05-04T13:30:00Z,30.2513,-88.0778,7.52,6.22,1111122 
DISL,ioos:station:DISL:DISL:1,2012-05-04T14:00:00Z,30.2513,-88.0778,7.57,6.25,1111122 
DISL,ioos:station:DISL:DISL:1,2012-05-04T14:30:00Z,30.2513,-88.0778,7.54,6.18,1111122 
DISL,ioos:station:DISL:DISL:1,2012-05-04T15:00:00Z,30.2513,-88.0778,7.51,6.76,1111122 
DISL,ioos:station:DISL:DISL:1,2012-05-04T15:30:00Z,30.2513,-88.0778,7.53,6.8,1111122 
DISL,ioos:station:DISL:DISL:1,2012-05-04T16:00:00Z,30.2513,-88.0778,7.46,7.13,1111122 
DISL,ioos:station:DISL:DISL:1,2012-05-04T16:30:00Z,30.2513,-88.0778,7.38,7.18,1111122 
DISL,ioos:station:DISL:DISL:1,2012-05-04T17:00:00Z,30.2513,-88.0778,7.21,7.05,1111122 
DISL,ioos:station:DISL:DISL:1,2012-05-04T17:30:00Z,30.2513,-88.0778,7.08,7.23,1111122 
DISL,ioos:station:DISL:DISL:1,2012-05-04T18:00:00Z,30.2513,-88.0778,7.01,7.1,1111122 
DISL,ioos:station:DISL:DISL:1,2012-05-04T18:30:00Z,30.2513,-88.0778,6.985,7.63,1111122 
DISL,ioos:station:DISL:DISL:1,2012-05-04T19:00:00Z,30.2513,-88.0778,6.847,8.5,1111122 
DISL,ioos:station:DISL:DISL:1,2012-05-04T19:30:00Z,30.2513,-88.0778,6.735,8.98,1111122 
DISL,ioos:station:DISL:DISL:1,2012-05-04T20:00:00Z,30.2513,-88.0778,6.668,8.88,1111122 
DISL,ioos:station:DISL:DISL:1,2012-05-04T20:30:00Z,30.2513,-88.0778,6.57,8.3,1111122 
DISL,ioos:station:DISL:DISL:1,2012-05-04T21:00:00Z,30.2513,-88.0778,6.501,8.39,1111122 
DISL,ioos:station:DISL:DISL:1,2012-05-04T21:30:00Z,30.2513,-88.0778,6.433,8.45,1111122 
DISL,ioos:station:DISL:DISL:1,2012-05-04T22:00:00Z,30.2513,-88.0778,6.361,8.53,1111122 
DISL,ioos:station:DISL:DISL:1,2012-05-04T22:30:00Z,30.2513,-88.0778,6.25,8.56,1111122 
DISL,ioos:station:DISL:DISL:1,2012-05-04T23:00:00Z,30.2513,-88.0778,6.23,8.17,1111122 
DISL,ioos:station:DISL:DISL:1,2012-05-04T23:30:00Z,30.2513,-88.0778,6.207,8.33,1111122 
DISL,ioos:station:DISL:DISL:1,2012-05-05T00:00:00Z,30.2513,-88.0778,6.148,8.18,1111122 
DISL,ioos:station:DISL:DISL:1,2012-05-05T00:30:00Z,30.2513,-88.0778,6.121,8.05,1111122 
DISL,ioos:station:DISL:DISL:1,2012-05-05T01:00:00Z,30.2513,-88.0778,6.124,8.21,1111122 
DISL,ioos:station:DISL:DISL:1,2012-05-05T01:30:00Z,30.2513,-88.0778,6.136,8.18,1111122 
DISL,ioos:station:DISL:DISL:1,2012-05-05T02:00:00Z,30.2513,-88.0778,6.166,8.38,1111122 
DISL,ioos:station:DISL:DISL:1,2012-05-05T02:30:00Z,30.2513,-88.0778,6.208,8.23,1111122 
DISL,ioos:station:DISL:DISL:1,2012-05-05T03:00:00Z,30.2513,-88.0778,6.233,8.09,1111122 
DISL,ioos:station:DISL:DISL:1,2012-05-05T03:30:00Z,30.2513,-88.0778,6.345,7.82,1111122 
DISL,ioos:station:DISL:DISL:1,2012-05-05T04:00:00Z,30.2513,-88.0778,6.368,7.45,1111122 
DISL,ioos:station:DISL:DISL:1,2012-05-05T04:30:00Z,30.2513,-88.0778,6.421,7.38,1111122 
DISL,ioos:station:DISL:DISL:1,2012-05-05T05:00:00Z,30.2513,-88.0778,6.446,7.18,1111122 
DISL,ioos:station:DISL:DISL:1,2012-05-05T05:30:00Z,30.2513,-88.0778,6.556,7.24,1111122 
DISL,ioos:station:DISL:DISL:1,2012-05-05T06:00:00Z,30.2513,-88.0778,6.636,7.09,1111122 
DISL,ioos:station:DISL:DISL:1,2012-05-05T06:30:00Z,30.2513,-88.0778,6.644,7.23,1111122 
DISL,ioos:station:DISL:DISL:1,2012-05-05T07:00:00Z,30.2513,-88.0778,6.765,6.93,1111122 
DISL,ioos:station:DISL:DISL:1,2012-05-05T07:30:00Z,30.2513,-88.0778,6.824,6.68,1111122 
DISL,ioos:station:DISL:DISL:1,2012-05-05T08:00:00Z,30.2513,-88.0778,6.901,6.47,1111122 
DISL,ioos:station:DISL:DISL:1,2012-05-05T08:30:00Z,30.2513,-88.0778,6.985,6.58,1111122 
DISL,ioos:station:DISL:DISL:1,2012-05-05T09:00:00Z,30.2513,-88.0778,7.05,6.12,1111122 
DISL,ioos:station:DISL:DISL:1,2012-05-05T09:30:00Z,30.2513,-88.0778,7.13,6.02,1111122 
DISL,ioos:station:DISL:DISL:1,2012-05-05T10:00:00Z,30.2513,-88.0778,7.15,6.12,1111122 
DISL,ioos:station:DISL:DISL:1,2012-05-05T10:30:00Z,30.2513,-88.0778,7.24,5.88,1111122 
DISL,ioos:station:DISL:DISL:1,2012-05-05T11:00:00Z,30.2513,-88.0778,7.32,5.94,1111122 
DISL,ioos:station:DISL:DISL:1,2012-05-05T11:30:00Z,30.2513,-88.0778,7.39,5.77,1111122 
DISL,ioos:station:DISL:DISL:1,2012-05-05T12:00:00Z,30.2513,-88.0778,7.49,5.69,1111122 
DISL,ioos:station:DISL:DISL:1,2012-05-05T12:30:00Z,30.2513,-88.0778,7.5,5.67,1111122 
DISL,ioos:station:DISL:DISL:1,2012-05-05T13:00:00Z,30.2513,-88.0778,7.55,5.97,1111122 
DISL,ioos:station:DISL:DISL:1,2012-05-05T13:30:00Z,30.2513,-88.0778,7.59,6.13,1111122 
DISL,ioos:station:DISL:DISL:1,2012-05-05T14:00:00Z,30.2513,-88.0778,7.6,6.02,1111122 
DISL,ioos:station:DISL:DISL:1,2012-05-05T14:30:00Z,30.2513,-88.0778,7.6,6.16,1111122 
DISL,ioos:station:DISL:DISL:1,2012-05-05T15:00:00Z,30.2513,-88.0778,7.58,6.29,1111122 
DISL,ioos:station:DISL:DISL:1,2012-05-05T15:30:00Z,30.2513,-88.0778,7.56,6.37,1111122 
DISL,ioos:station:DISL:DISL:1,2012-05-05T16:00:00Z,30.2513,-88.0778,7.49,6.5,1111122 
DISL,ioos:station:DISL:DISL:1,2012-05-05T16:30:00Z,30.2513,-88.0778,7.43,6.37,1111122 
DISL,ioos:station:DISL:DISL:1,2012-05-05T17:00:00Z,30.2513,-88.0778,7.36,6.48,1111122 
DISL,ioos:station:DISL:DISL:1,2012-05-05T17:30:00Z,30.2513,-88.0778,7.29,6.81,1111122 
DISL,ioos:station:DISL:DISL:1,2012-05-05T18:00:00Z,30.2513,-88.0778,7.12,6.72,1111122 
DISL,ioos:station:DISL:DISL:1,2012-05-05T18:30:00Z,30.2513,-88.0778,7.03,6.98,1111122 
DISL,ioos:station:DISL:DISL:1,2012-05-05T19:00:00Z,30.2513,-88.0778,6.91,6.76,1111122 
DISL,ioos:station:DISL:DISL:1,2012-05-05T19:30:00Z,30.2513,-88.0778,6.766,8.37,1111122 
DISL,ioos:station:DISL:DISL:1,2012-05-05T20:00:00Z,30.2513,-88.0778,6.642,9.28,1111122 
DISL,ioos:station:DISL:DISL:1,2012-05-05T20:30:00Z,30.2513,-88.0778,6.577,9.49,1111122 
DISL,ioos:station:DISL:DISL:1,2012-05-05T21:00:00Z,30.2513,-88.0778,6.41,9.31,1111122 
DISL,ioos:station:DISL:DISL:1,2012-05-05T21:30:00Z,30.2513,-88.0778,6.354,8.75,1111122 
DISL,ioos:station:DISL:DISL:1,2012-05-05T22:00:00Z,30.2513,-88.0778,6.23,8.27,1111122 
DISL,ioos:station:DISL:DISL:1,2012-05-05T22:30:00Z,30.2513,-88.0778,6.159,8.14,1111122 
DISL,ioos:station:DISL:DISL:1,2012-05-05T23:00:00Z,30.2513,-88.0778,6.108,8.22,1111122 
DISL,ioos:station:DISL:DISL:1,2012-05-05T23:30:00Z,30.2513,-88.0778,6.046,8.26,1111122 
DISL,ioos:station:DISL:DISL:1,2012-05-06T00:00:00Z,30.2513,-88.0778,6.008,8.19,1111122 
DISL,ioos:station:DISL:DISL:1,2012-05-06T00:30:00Z,30.2513,-88.0778,5.875,8.16,1111122 
DISL,ioos:station:DISL:DISL:1,2012-05-06T01:00:00Z,30.2513,-88.0778,5.955,8.15,1111122 
DISL,ioos:station:DISL:DISL:1,2012-05-06T01:30:00Z,30.2513,-88.0778,5.898,7.69,1111122 
DISL,ioos:station:DISL:DISL:1,2012-05-06T02:00:00Z,30.2513,-88.0778,5.874,7.99,1111122 
DISL,ioos:station:DISL:DISL:1,2012-05-06T02:30:00Z,30.2513,-88.0778,5.901,7.85,1111122 
DISL,ioos:station:DISL:DISL:1,2012-05-06T03:00:00Z,30.2513,-88.0778,5.98,7.53,1111122 
DISL,ioos:station:DISL:DISL:1,2012-05-06T03:30:00Z,30.2513,-88.0778,5.994,7.68,1111122 
DISL,ioos:station:DISL:DISL:1,2012-05-06T04:00:00Z,30.2513,-88.0778,5.969,7.57,1111122 
DISL,ioos:station:DISL:DISL:1,2012-05-06T04:30:00Z,30.2513,-88.0778,6.056,7.55,1111122 
DISL,ioos:station:DISL:DISL:1,2012-05-06T05:00:00Z,30.2513,-88.0778,6.131,7.25,1111122 
DISL,ioos:station:DISL:DISL:1,2012-05-06T05:30:00Z,30.2513,-88.0778,6.177,7.38,1111122 
DISL,ioos:station:DISL:DISL:1,2012-05-06T06:00:00Z,30.2513,-88.0778,6.307,7.17,1111122 
DISL,ioos:station:DISL:DISL:1,2012-05-06T06:30:00Z,30.2513,-88.0778,6.371,7.0,1111122 
DISL,ioos:station:DISL:DISL:1,2012-05-06T07:00:00Z,30.2513,-88.0778,6.435,7.06,1111122 
DISL,ioos:station:DISL:DISL:1,2012-05-06T07:30:00Z,30.2513,-88.0778,6.507,6.85,1111122 
DISL,ioos:station:DISL:DISL:1,2012-05-06T08:00:00Z,30.2513,-88.0778,6.591,6.41,1111122 
DISL,ioos:station:DISL:DISL:1,2012-05-06T08:30:00Z,30.2513,-88.0778,6.699,6.09,1111122 
DISL,ioos:station:DISL:DISL:1,2012-05-06T09:00:00Z,30.2513,-88.0778,6.797,6.43,1111122 
DISL,ioos:station:DISL:DISL:1,2012-05-06T09:30:00Z,30.2513,-88.0778,6.886,6.29,1111122 
DISL,ioos:station:DISL:DISL:1,2012-05-06T10:00:00Z,30.2513,-88.0778,7.03,6.71,1111122 
DISL,ioos:station:DISL:DISL:1,2012-05-06T10:30:00Z,30.2513,-88.0778,7.08,6.34,1111122 
DISL,ioos:station:DISL:DISL:1,2012-05-06T11:00:00Z,30.2513,-88.0778,7.18,6.19,1111122 
DISL,ioos:station:DISL:DISL:1,2012-05-06T11:30:00Z,30.2513,-88.0778,7.28,6.07,1111122 
DISL,ioos:station:DISL:DISL:1,2012-05-06T12:00:00Z,30.2513,-88.0778,7.44,5.91,1111122 
DISL,ioos:station:DISL:DISL:1,2012-05-06T12:30:00Z,30.2513,-88.0778,7.48,5.9,1111122 
DISL,ioos:station:DISL:DISL:1,2012-05-06T13:00:00Z,30.2513,-88.0778,7.58,6.04,1111122 
DISL,ioos:station:DISL:DISL:1,2012-05-06T13:30:00Z,30.2513,-88.0778,7.35,6.08,1111122 
DISL,ioos:station:DISL:DISL:1,2012-05-06T14:00:00Z,30.2513,-88.0778,7.79,6.03,1111122 
DISL,ioos:station:DISL:DISL:1,2012-05-06T14:30:00Z,30.2513,-88.0778,7.71,6.17,1111122 
DISL,ioos:station:DISL:DISL:1,2012-05-06T15:00:00Z,30.2513,-88.0778,7.77,6.09,1111122 
DISL,ioos:station:DISL:DISL:1,2012-05-06T15:30:00Z,30.2513,-88.0778,7.8,6.38,1111122 
DISL,ioos:station:DISL:DISL:1,2012-05-06T16:00:00Z,30.2513,-88.0778,7.78,6.54,1111122 